Weather Roundup
Issued by NWS

Home | Current Version | Previous Version | Graphics & Text | Print | Product List | Glossary Off
Versions: 1 2 3 4 5 6 7 8 9 10 11 12 13 14 15 16 17 18 19 20 21 22 23 24 25 26 27 28 29 30 31 32 33 34 35 36 37 38 39 40 41 42 43 44 45 46 47 48 49 50

186
NZUS93 KARX 070859
HRRWXR

CURRENT HOURLY OBSERVATIONS ACROSS
MUCH OF THE UPPER MISSISSIPPI VALLEY
NATIONAL WEATHER SERVICE LA CROSSE WI
300 AM CST SUN FEB 07 2016


...SOUTHEAST MINNESOTA...


CITY           SKY/WX    TMP DP  RH WIND       PRES   REMARKS
ROCHESTER      CLOUDY    32  27  81 SW16      29.69F WCI  21
ROCHESTER/MAYO FAIR      34  29  81 S7        29.70F WCI  28
WINONA         CLOUDY    36  30  80 SW3       29.74F
AUSTIN         PTCLDY    34  28  80 SW13      29.73S WCI  25
ALBERT LEA     CLOUDY    34  28  80 SW10G18   29.72F WCI  26
DODGE CENTER   CLOUDY    30  27  86 SW20      29.69F WCI  18
PRESTON        CLOUDY    32  28  83 SW18G24   29.73R WCI  21
OWATONNA       PTCLDY    32  27  80 SW14      29.71F WCI  22
FARIBAULT        N/A     32  27  80 S9        29.69F WCI  24
$$

...ELSEWHERE IN MINNESOTA...


CITY           SKY/WX    TMP DP  RH WIND       PRES   REMARKS
MINNEAPOLIS    MOCLDY    33  27  78 SW6       29.67S WCI  28
INTNL FALLS    CLOUDY    34  31  88 VRB5      29.40F WCI  30
DULUTH         CLOUDY    32  29  88 SW12      29.51F WCI  23
RED WING       CLOUDY    34  27  75 SW6       29.69F WCI  29
REDWOOD FALLS  PTCLDY    36  28  73 W14       29.71R WCI  27
MANKATO        MOCLDY    36  27  69 W14       29.70F WCI  27
WORTHINGTON    CLEAR     34  25  69 W18       29.78R WCI  23
FAIRMONT       MOCLDY    36  27  69 W18       29.74R WCI  25
$$

...SOUTHWEST WISCONSIN...


CITY           SKY/WX    TMP DP  RH WIND       PRES   REMARKS
LA CROSSE      CLOUDY    36  29  75 VRB5      29.75S WCI  32
PRAIRIE DU CHI CLOUDY    38  28  68 S8        29.80F WCI  32
BOSCOBEL       CLOUDY    39  31  72 S12       29.79F WCI  32
LONE ROCK      NOT AVBL
PLATTEVILLE    PTCLDY    35  32  86 S15       29.84F WCI  26
FORT MC COY    CLOUDY    35  30  83 SW7G16    29.74F WCI  29
VIROQUA        PTSUNNY   34  30  86 S15       29.74F WCI  24
WIS DELLS      CLOUDY    35  29  80 S13       29.79F WCI  26
$$

...ELSEWHERE IN WISCONSIN...


CITY           SKY/WX    TMP DP  RH WIND       PRES   REMARKS
MILWAUKEE      CLOUDY    34  28  79 SW9       29.91F WCI  27
MADISON        CLOUDY    35  29  78 S9        29.84F WCI  28
GREEN BAY      CLOUDY    34  28  79 S12       29.79F WCI  25
EAU CLAIRE     NOT AVBL
BLACK RVR FLS  PTSUNNY   34  28  80 S6        29.72F WCI  29
MEDFORD        CLOUDY    29  28  95 S12       29.67F WCI  19
WAUSAU         CLOUDY    31  27  85 S10       29.69F WCI  22
WIS RAPIDS     CLOUDY    32  26  78 S8        29.74F WCI  25
MARSHFIELD     MOCLDY    31  25  78 S14       29.68F WCI  21
RICE LAKE      CLOUDY    31  28  86 S7        29.69F WCI  24
$$

...NORTHEAST IOWA...


CITY           SKY/WX    TMP DP  RH WIND       PRES   REMARKS
WATERLOO       CLOUDY    36  29  75 SW16      29.81F WCI  26
DUBUQUE        PTCLDY    36  29  75 S21       29.82F WCI  25
DECORAH        CLOUDY    36  30  80 SW16G23   29.74F WCI  26
MASON CITY     CLOUDY    34  27  75 SW21      29.76F WCI  22
CHARLES CITY   CLOUDY    34  34 100 SW15      29.77F WCI  24
OELWEIN        CLOUDY    36  32  87 S15       29.81F WCI  26
$$

...ELSEWHERE IN IOWA...


CITY           SKY/WX    TMP DP  RH WIND       PRES   REMARKS
DES MOINES     CLOUDY    36  27  69 SW10      29.88F WCI  28
IOWA CITY      MOCLDY    37  29  72 SW12      29.90F WCI  29
FORT DODGE     CLOUDY    34  27  75 SW12G17   29.81F WCI  25
MARSHALLTOWN   CLOUDY    36  28  73 SW16      29.83F WCI  26
CEDAR RAPIDS   MOCLDY    36  30  79 S15       29.83F WCI  27
$$

...NORTHERN ILLINOIS...


CITY           SKY/WX    TMP DP  RH WIND       PRES   REMARKS
CHICAGO-OHARE  CLOUDY    35  29  78 SW10      29.97F WCI  27
CHICAGO-MIDWAY CLOUDY    37  28  70 S8        29.99F WCI  31
MOLINE         MOCLDY    39  29  67 SW15      29.91F WCI  31
ROCKFORD       CLOUDY    36  30  79 S9        29.93F WCI  29
PEORIA         PTCLDY    36  28  73 S10       30.01F WCI  28
$$

NOTE: "FAIR" INDICATES FEW OR NO CLOUDS BELOW 12,000 FEET WITH NO
SIGNIFICANT WEATHER AND/OR OBSTRUCTIONS TO VISIBILITY. WIND
SPEEDS ARE IN MILES-PER-HOUR.




USA.gov is the U.S. government's official web portal to all federal, state and local government web resources and services.